TimePDT,TemperatureF,Dew PointF,Humidity,Sea Level PressureIn,VisibilityMPH,Wind Direction,Wind SpeedMPH,Gust SpeedMPH,PrecipitationIn,Events,Conditions,WindDirDegrees,DateUTC
12:58 AM,47.5,45.1,92,30.06,10.0,Calm,Calm,-,N/A,,Clear,0,2013-06-15 07:58:00
1:58 AM,46.2,45.0,95,30.04,10.0,SSE,2.3,-,N/A,,Clear,150,2013-06-15 08:58:00
2:58 AM,46.8,45.9,97,30.02,10.0,East,3.5,-,N/A,,Clear,90,2013-06-15 09:58:00
3:58 AM,46.2,46.0,99,30.02,10.0,East,1.2,-,N/A,,Clear,100,2013-06-15 10:58:00
4:58 AM,45.9,45.5,99,30.01,4.0,South,1.2,-,N/A,,Clear,170,2013-06-15 11:58:00
5:03 AM,42.8,42.8,100,30.00,1.8,South,1.2,-,N/A,,Clear,170,2013-06-15 12:03:00
5:08 AM,42.8,42.8,100,29.99,1.5,SSE,2.3,-,N/A,,Clear,160,2013-06-15 12:08:00
5:13 AM,42.8,42.8,100,29.99,3.0,SSE,3.5,-,N/A,,Clear,160,2013-06-15 12:13:00
5:58 AM,43.3,43.0,99,30.01,10.0,SSE,2.3,-,N/A,,Clear,160,2013-06-15 12:58:00
6:44 AM,48.2,46.4,93,29.99,10.0,ESE,2.3,-,N/A,,Partly Cloudy,110,2013-06-15 13:44:00
6:58 AM,48.2,47.8,99,30.00,10.0,SE,2.3,-,N/A,,Partly Cloudy,140,2013-06-15 13:58:00
7:58 AM,55.0,51.1,86,29.99,10.0,North,5.8,-,N/A,,Clear,10,2013-06-15 14:58:00
8:58 AM,58.5,50.7,75,29.99,10.0,Variable,4.6,-,N/A,,Clear,0,2013-06-15 15:58:00
9:58 AM,60.8,51.8,72,29.99,10.0,NE,4.6,-,N/A,,Clear,50,2013-06-15 16:58:00
10:58 AM,64.6,50.9,61,29.98,10.0,North,9.2,-,N/A,,Clear,10,2013-06-15 17:58:00
11:58 AM,66.9,51.3,57,29.97,10.0,Variable,6.9,-,N/A,,Clear,0,2013-06-15 18:58:00
12:58 PM,68.9,50.9,53,29.97,10.0,NNE,8.1,-,N/A,,Clear,30,2013-06-15 19:58:00
1:58 PM,71.6,51.3,49,29.96,10.0,Variable,3.5,-,N/A,,Clear,0,2013-06-15 20:58:00
2:58 PM,74.5,50.2,42,29.95,10.0,NNW,5.8,-,N/A,,Clear,330,2013-06-15 21:58:00
3:58 PM,76.1,48.9,38,29.94,10.0,Variable,3.5,-,N/A,,Scattered Clouds,0,2013-06-15 22:58:00
4:58 PM,77.5,46.0,33,29.94,10.0,SW,4.6,-,N/A,,Clear,230,2013-06-15 23:58:00
5:58 PM,77.4,45.7,32,29.95,10.0,Variable,1.2,-,N/A,,Scattered Clouds,0,2013-06-16 00:58:00
6:58 PM,76.6,48.6,37,29.95,10.0,Variable,4.6,-,N/A,,Partly Cloudy,0,2013-06-16 01:58:00
7:58 PM,73.9,48.9,41,29.96,10.0,Variable,3.5,-,N/A,,Clear,0,2013-06-16 02:58:00
8:58 PM,69.6,51.4,52,29.97,10.0,North,5.8,-,N/A,,Overcast,10,2013-06-16 03:58:00
9:58 PM,68.0,52.3,57,29.99,10.0,West,9.2,-,N/A,,Partly Cloudy,270,2013-06-16 04:58:00
10:58 PM,64.0,51.8,64,30.02,10.0,West,6.9,-,N/A,,Clear,270,2013-06-16 05:58:00
11:58 PM,61.5,48.2,62,30.03,10.0,West,6.9,-,N/A,,Scattered Clouds,270,2013-06-16 06:58:00